Freeport, IL

6:09 AM CDT on September 21, 2017 (GMT -0500)
Albertus

Weather History for KFEP - November, 2011

Change the Weather History Date:

Friday, November 18, 2011

  Actual Average Record
Temperature  
Mean Temperature 38 °F -  
Max Temperature 52 °F 47 °F 68 °F (1975)
Min Temperature 23 °F 27 °F 5 °F (2014)
Degree Days  
Heating Degree Days 28    
Moisture  
Dew Point 18 °F    
Average Humidity 48    
Maximum Humidity 72    
Minimum Humidity 23    
Precipitation  
Precipitation 0.00 in - - ()
Sea Level Pressure  
Sea Level Pressure 29.96 in    
Wind  
Wind Speed 14 mph (South)    
Max Wind Speed 34 mph    
Max Gust Speed 41 mph    
Visibility 10 miles    
Events      
Averages and records for this station are not official NWS values.
T = Trace of Precipitation, MM = Missing Value Source: NWS Daily Summary

Daily Weather History Graph

Daily Weather History Graph

Search for Another Location

Airport or City:

Trip Planner

Search our weather history database for the weather conditions in past years. The results will help you decide how hot, cold, wet, or windy it might be!

Date:

Astronomy

Nov. 18, 2011 Rise Set
Actual Time 6:52 AM CST 4:34 PM CST
Civil Twilight 6:21 AM CST 5:04 PM CST
Nautical Twilight 5:47 AM CST 5:38 PM CST
Astronomical Twilight 5:14 AM CST 6:11 PM CST
Moon No Moon Rise 12:28 PM CST (11/18)
Length of Visible Light 10h 42m
Length of Day
9h 42m
Waning Gibbous, 49% of the Moon is Illuminated
Nov 18
Waning Gibbous
Nov 25
New
Dec 2
First Quarter
Dec 10
Full
Dec 17
Last Quarter

Hourly Weather History & Observations

Time (CST) Temp. Windchill Dew Point Humidity Pressure Visibility Wind Dir Wind Speed Gust Speed Precip Events Conditions
12:15 AM 27.0 °F 17.3 °F 18.3 °F 70% 30.12 in 10.0 mi SSE 10.4 mph - N/A   Clear
12:35 AM 27.3 °F 16.6 °F 17.4 °F 66% 30.11 in 10.0 mi SSE 12.7 mph - N/A   Clear
12:55 AM 27.1 °F 17.5 °F 17.1 °F 66% 30.11 in 10.0 mi SSE 10.4 mph - N/A   Clear
1:15 AM 28.0 °F 18.1 °F 17.4 °F 64% 30.09 in 10.0 mi SSE 11.5 mph - N/A   Clear
1:35 AM 29.1 °F 20.6 °F 18.1 °F 64% 30.09 in 10.0 mi South 9.2 mph - N/A   Clear
1:55 AM 27.0 °F 23.0 °F 16.2 °F 64% 30.11 in 10.0 mi WSW 3.5 mph - N/A   Clear
2:15 AM 27.1 °F 23.2 °F 15.8 °F 62% 30.12 in 10.0 mi SW 3.5 mph - N/A   Clear
2:35 AM 26.4 °F 22.4 °F 15.8 °F 64% 30.11 in 10.0 mi South 3.5 mph - N/A   Clear
2:55 AM 23.5 °F 17.6 °F 15.1 °F 70% 30.10 in 10.0 mi SSE 4.6 mph - N/A   Clear
3:15 AM 23.2 °F 16.0 °F 15.3 °F 72% 30.09 in 10.0 mi SSE 5.8 mph - N/A   Clear
3:35 AM 24.6 °F 16.7 °F 16.3 °F 71% 30.07 in 10.0 mi SSE 6.9 mph - N/A   Clear
3:55 AM 27.0 °F 16.7 °F 18.5 °F 70% 30.06 in 10.0 mi SSE 11.5 mph - N/A   Clear
4:15 AM 28.0 °F 17.5 °F 18.3 °F 67% 30.06 in 10.0 mi SSE 12.7 mph - N/A   Clear
4:35 AM 28.0 °F 17.0 °F 18.5 °F 67% 30.05 in 10.0 mi SSE 13.8 mph - N/A   Clear
4:55 AM 29.3 °F 18.2 °F 19.4 °F 67% 30.04 in 10.0 mi South 15.0 mph - N/A   Clear
5:35 AM 29.3 °F 18.2 °F 18.5 °F 64% 30.03 in 10.0 mi South 15.0 mph 21.9 mph N/A   Clear
5:55 AM 32.0 °F 20.5 °F 21.2 °F 64% 30.02 in 10.0 mi South 18.4 mph - N/A   Clear
6:15 AM 31.8 °F 21.4 °F 20.1 °F 62% 30.02 in 10.0 mi South 15.0 mph 18.4 mph N/A   Clear
6:35 AM 29.8 °F 18.9 °F 18.9 °F 64% 30.01 in 10.0 mi South 15.0 mph - N/A   Clear
6:55 AM 32.0 °F 20.5 °F 20.8 °F 63% 30.00 in 10.0 mi SSE 18.4 mph - N/A   Clear
7:15 AM 32.0 °F 19.8 °F 21.2 °F 64% 29.98 in 10.0 mi SSE 20.7 mph - N/A   Clear
7:35 AM 32.0 °F 20.1 °F 19.9 °F 61% 29.99 in 10.0 mi SSE 19.6 mph 25.3 mph N/A   Clear
7:55 AM 34.2 °F 22.6 °F 20.5 °F 57% 29.98 in 10.0 mi SSE 20.7 mph 28.8 mph N/A   Clear
8:15 AM 35.6 °F 24.5 °F 21.0 °F 55% 29.99 in 10.0 mi South 20.7 mph 26.5 mph N/A   Clear
8:35 AM 36.7 °F 26.0 °F 21.0 °F 53% 29.99 in 10.0 mi South 20.7 mph 25.3 mph N/A   Clear
8:55 AM 37.0 °F 26.7 °F 19.8 °F 50% 29.98 in 10.0 mi South 19.6 mph 28.8 mph N/A   Clear
9:15 AM 39.2 °F 29.6 °F 19.4 °F 45% 29.98 in 10.0 mi South 19.6 mph 26.5 mph N/A   Clear
9:35 AM 40.6 °F 32.0 °F 18.9 °F 42% 29.98 in 10.0 mi South 17.3 mph 26.5 mph N/A   Clear
10:15 AM 43.0 °F 33.8 °F 16.7 °F 35% 29.97 in 10.0 mi South 23.0 mph 36.8 mph N/A   Clear
10:35 AM 43.0 °F 32.5 °F 16.7 °F 35% 29.96 in 10.0 mi South 29.9 mph 36.8 mph N/A   Clear
10:55 AM 44.6 °F 35.5 °F 15.6 °F 31% 29.95 in 10.0 mi South 25.3 mph 36.8 mph N/A   Clear
11:15 AM 45.0 °F 35.4 °F 15.6 °F 31% 29.94 in 10.0 mi South 28.8 mph 40.3 mph N/A   Clear
11:35 AM 45.5 °F 37.1 °F 15.3 °F 30% 29.93 in 10.0 mi South 23.0 mph 36.8 mph N/A   Clear
11:55 AM 45.5 °F 36.9 °F 15.1 °F 29% 29.90 in 10.0 mi South 24.2 mph 33.4 mph N/A   Clear
12:15 PM 46.2 °F 36.3 °F 14.7 °F 28% 29.88 in 10.0 mi South 34.5 mph 41.4 mph N/A   Clear
12:35 PM 48.0 °F - 15.8 °F 28% 29.87 in 10.0 mi South 23.0 mph 35.7 mph N/A   Clear
12:55 PM 45.9 °F 38.0 °F 15.8 °F 30% 29.87 in 10.0 mi South 20.7 mph 29.9 mph N/A   Clear
1:35 PM 52.0 °F - 18.5 °F 27% 29.85 in 10.0 mi South 23.0 mph 34.5 mph N/A   Clear
1:55 PM 49.5 °F - 16.5 °F 27% 29.84 in 10.0 mi South 24.2 mph 29.9 mph N/A   Clear
2:15 PM 49.5 °F - 14.5 °F 25% 29.83 in 10.0 mi South 24.2 mph 34.5 mph N/A   Clear
2:35 PM 51.4 °F - 16.3 °F 25% 29.83 in 10.0 mi South 21.9 mph 31.1 mph N/A   Clear
2:55 PM 50.0 °F - 15.8 °F 26% 29.82 in 10.0 mi South 18.4 mph 28.8 mph N/A   Clear
3:15 PM 52.0 °F - 14.5 °F 23% 29.81 in 10.0 mi South 23.0 mph 35.7 mph N/A   Clear
3:35 PM 51.8 °F - 15.8 °F 24% 29.82 in 10.0 mi South 19.6 mph 25.3 mph N/A   Clear
3:55 PM 51.1 °F - 16.9 °F 26% 29.80 in 10.0 mi South 17.3 mph 28.8 mph N/A   Clear
4:15 PM 49.5 °F - 15.6 °F 26% 29.80 in 10.0 mi South 18.4 mph 28.8 mph N/A   Clear
4:35 PM 46.0 °F 41.0 °F 15.6 °F 30% 29.82 in 10.0 mi SSE 10.4 mph - N/A   Clear
4:55 PM 44.2 °F 38.0 °F 18.5 °F 36% 29.82 in 10.0 mi SSE 12.7 mph - N/A   Clear
5:15 PM 43.0 °F 37.2 °F 19.0 °F 38% 29.82 in 10.0 mi SSE 10.4 mph - N/A   Clear
5:35 PM 42.8 °F 36.6 °F 21.2 °F 42% 29.82 in 10.0 mi SSE 11.5 mph - N/A   Clear
5:55 PM 41.9 °F 36.9 °F 21.7 °F 45% 29.83 in 10.0 mi SSE 8.1 mph - N/A   Clear
6:15 PM 39.2 °F 32.5 °F 22.8 °F 52% 29.83 in 10.0 mi SSE 10.4 mph - N/A   Clear
6:35 PM 39.2 °F 32.0 °F 22.1 °F 50% 29.82 in 10.0 mi SSE 11.5 mph - N/A   Clear
6:55 PM 38.8 °F 32.1 °F 23.5 °F 54% 29.83 in 10.0 mi SSE 10.4 mph - N/A   Clear
7:15 PM 37.4 °F 29.8 °F 23.2 °F 57% 29.83 in 10.0 mi SSE 11.5 mph - N/A   Clear
7:35 PM 39.2 °F 31.2 °F 24.8 °F 56% 29.83 in 10.0 mi SSE 13.8 mph - N/A   Clear
7:55 PM 39.2 °F 31.2 °F 23.4 °F 53% 29.84 in 10.0 mi SSE 13.8 mph 18.4 mph N/A   Clear
8:15 PM 39.2 °F 30.5 °F 22.1 °F 50% 29.83 in 10.0 mi SSE 16.1 mph - N/A   Clear
8:35 PM 39.4 °F 30.7 °F 21.9 °F 50% 29.84 in 10.0 mi SSE 16.1 mph - N/A   Clear
8:55 PM 39.2 °F 30.5 °F 22.1 °F 50% 29.84 in 10.0 mi SSE 16.1 mph - N/A   Clear
9:15 PM 39.2 °F 30.2 °F 22.6 °F 52% 29.84 in 10.0 mi SSE 17.3 mph - N/A   Clear
9:35 PM 39.2 °F 30.8 °F 23.0 °F 52% 29.85 in 10.0 mi SSE 15.0 mph - N/A   Clear
9:55 PM 39.2 °F 30.8 °F 22.8 °F 52% 29.85 in 10.0 mi SSE 15.0 mph - N/A   Clear
10:15 PM 39.2 °F 30.2 °F 23.0 °F 52% 29.85 in 10.0 mi South 17.3 mph - N/A   Clear
10:35 PM 39.2 °F 30.2 °F 22.6 °F 52% 29.85 in 10.0 mi South 17.3 mph - N/A   Clear
10:55 PM 39.2 °F 30.2 °F 23.0 °F 52% 29.85 in 10.0 mi South 17.3 mph - N/A   Clear
11:15 PM 39.2 °F 30.5 °F 23.0 °F 52% 29.85 in 10.0 mi SSE 16.1 mph - N/A   Clear
11:35 PM 39.2 °F 30.2 °F 23.9 °F 54% 29.85 in 10.0 mi SSE 17.3 mph 23.0 mph N/A   Clear
11:55 PM 39.2 °F 29.8 °F 24.3 °F 55% 29.85 in 10.0 mi SSE 18.4 mph - N/A   Clear